Regional Weather Roundup
Issued by NWS Charleston, SC

Current Version | Previous Version | Text Only | Print | Product List | Glossary On
Versions: 1 2 3 4 5 6 7 8 9 10 11 12 13 14 15 16 17 18 19 20 21 22 23 24 25 26 27 28 29 30 31 32 33 34 35 36 37 38 39 40 41 42 43 44 45 46 47 48 49 50
000
ASUS42 KCHS 171425
RWRCHS

REGIONAL WEATHER ROUNDUP
NATIONAL WEATHER SERVICE CHARLESTON SC
1000 AM EDT THU APR 17 2014

NOTE: "FAIR" INDICATES FEW OR NO CLOUDS BELOW 12,000 FEET WITH NO
SIGNIFICANT WEATHER AND/OR OBSTRUCTIONS TO VISIBILITY.

NOT ALL STATIONS ARE QUALITY CONTROLLED BY THE NATIONAL
WEATHER SERVICE. USE DATA WITH CAUTION...ESPECIALLY
DEWPOINT OBSERVATIONS.

SCZ027-030-031-034>040-042>050-171500-
...SOUTH CAROLINA...

CITY           SKY/WX    TMP DP  RH WIND       PRES   REMARKS
N CHARLESTON   PTSUNNY   51  36  56 NE10      30.45R
WATERFRONT PRK   N/A     48 N/A N/A N13         N/A
FORT JOHNSON     N/A     48  41  76 NE7G14    30.48R
MOUNT PLEASANT FAIR     N/A N/A N/A CALM      30.45R
JOHNS ISLAND   SUNNY     54  45  71 NE13      30.44S
PINOPOLIS        N/A     46  36  66 NE9       30.36F
MONCKS CORNER  FAIR      50  39  66 NE8       30.45S
SUMMERVILLE    FAIR      50  37  62 N13       30.46R
BEAUFORT MCAS  MOSUNNY   53  38  56 E13       30.43R
BEAUFORT ARPT  FAIR      52  45  76 NE17      30.43R
HILTON HEAD IS CLOUDY    52  45  76 N9        30.42R
GEORGETOWN     NOT AVBL
WALTERBORO     PTSUNNY   50  39  66 NE6       30.45S
ORANGEBURG     MOSUNNY   48  25  40 NE12      30.47R
BARNWELL       FAIR      52  28  40 E14G20    30.46S
AIKEN          FAIR      50  34  53 NE16      30.49R
MANNING        FAIR      50  36  57 N9        30.48R
KINGSTREE      NOT AVBL
COLUMBIA       MOSUNNY   50  22  33 NE14      30.49R
SUMTER         SUNNY     47  29  48 NE16      30.48R
FLORENCE       MOSUNNY   49  32  52 NE13      30.50R
MYRTLE BEACH   SUNNY     48  37  66 N14       30.46R
N MYRTLE BEACH MOSUNNY   49  37  63 N9        30.46R

$$

GAZ063-065-086>088-099>101-113>116-118-119-134-136>141-150-171500-
...GEORGIA...

CITY           SKY/WX    TMP DP  RH WIND       PRES   REMARKS
SAVANNAH ARPT  MOSUNNY   55  37  50 NE13      30.42R
HUNTER AAF     CLOUDY    54  41  61 NE8       30.39R
FORT STEWART   CLOUDY    54  43  66 N13       30.39R
STATESBORO     NOT AVBL
SYLVANIA       MOSUNNY   54  29  37 E9        30.44R
CLAXTON        PTSUNNY   55  36  47 NE8       30.42R
THOMSON        SUNNY     50  37  60 NE13      30.51R
AUGUSTA-BUSH   SUNNY     52  30  43 NE12      30.46S
AUGUSTA-DANIEL SUNNY     52  31  44 NE10G20   30.46R
SWAINSBORO     CLOUDY    52  36  54 NE10      30.44R
VIDALIA        CLOUDY    54  37  54 NE15      30.41R
ALMA           CLOUDY    54  44  69 NE12G17   30.36R
WAYCROSS       NOT AVBL
JESUP          PTSUNNY   54  46  76 E14       30.38R
BRUNSWICK      CLOUDY    55  50  82 NE12G20   30.36R
SAINT SIMONS   LGT RAIN  61  54  77 NE17G25   30.34R

$$

SCZ027-028-034-036>038-045-046-048>050-GAZ119-141-171500-
...LAKE AND SUPPLEMENTAL COASTAL OBSERVATIONS...

STATION/POSITION TIME  TEMP    WIND        PRES    WAVE   SWELL
                       AIR SEA DIR/SP/G            HT/PER HT/PER/DIR
                 (UTC) (F)     (DEG/KT/KT) (MB)    (FT/S) (FT/S/D)
UPR LAKE MARION  NOT AVBL
WINYAH BAY       1400   49      20/  5     1031.0S
LAKE MURRAY      1400   46      50/  5/  8 1031.8S
ACE BASIN NERRS  1400   50      20/  5     1030.0S
FORT PULASKI     1400   52 59   20/ 16/ 21 1029.8R
SAPELO ISLAND    1400   55      30/ 16     1027.0S

$$

ANZ086-088-AMZ330-350-352-354-374-454-470-171500-
...C-MAN AND BUOY OBSERVATIONS...

STATION/POSITION TIME  TEMP    WIND        PRES    WAVE   SWELL
                       AIR SEA DIR/SP/G            HT/PER HT/PER/DIR
                 (UTC) (F)     (DEG/KT/KT) (MB)    (FT/S) (FT/S/D)
FOLLY BEACH CMAN 1400   49      30/ 15/ 18 1031.1R
BUOY 41004       NOT AVBL
BUOY 41008       1400   61 64   50/ 23/ 27 1026.7R   7/ 7   2/ 90/11
5E ST. MARYS GA  1400      64                N/A     8/ 7   2/ 70/12
FRYING PAN BUOY  1400   56 63   50/ 23/ 27 1028.9R   9/ 7   2/110/10
BUOY 41025       NOT AVBL
CAPE LOOKOUT NC  1400   53      20/ 18/ 23 1031.7R
BUOY 41002       NOT AVBL
BUOY 41010       1400   71 76   30/ 19/ 23 1023.5R  10/ 8   7/ 40/ 9
BUOY 41012       NOT AVBL
ST AUGUSTINE FL  1400   66      30/ 16/ 18 1025.2R


$$


USA.gov is the U.S. government's official web portal to all federal, state and local government web resources and services.